sat.trackr.live / text

‹ back to catalog

STARLINK-37106

NORAD 68219 · 2026-053N

PAYLOAD ACTIVE UNKNOWN

§ Identity

Operator
Country
US
Launch date
2026-03-17
Launch site
AFWTR
Launch vehicle
Mass (kg)
RCS (m²)

Purposes: comms

External: N2YO · Heavens-Above · Gunter

§ Orbital elements

Epoch: 2026-09-20T02:40:39.361152Z

Period
93.91 min
Inclination
97.2849°
Eccentricity
0.0001732
Mean motion
15.33451334 rev/d
Perigee alt
464.3 km
Apogee alt
466.7 km
Semi-major
6,843.7 km
B*
4.2764e-4
RAAN
136.8928°
Arg perigee
83.9123°
Mean anomaly
276.2317°
Rev number
3,001

§ Raw data

STARLINK-371061 68219U 26053N   26263.11156668  .00013759  00000+0  42764-3 0  99952 68219  97.2849 136.8928 0001732  83.9123 276.2317 15.33451334 30017

JSON: /api/v1/satellites/68219 · /tle

For live sub-satellite position, see the globe view (requires WebGL).

§ Visibility from observer

Set your observer location to see the next 7 days of passes ≥ 10°. The values pass through the URL so the page stays shareable.

No JS? Fill the form by hand. The geolocation button needs JavaScript.